TimeMST,TemperatureF,Dew PointF,Humidity,Sea Level PressureIn,VisibilityMPH,Wind Direction,Wind SpeedMPH,Gust SpeedMPH,PrecipitationIn,Events,Conditions,WindDirDegrees,DateUTC
12:53 AM,42.1,23.0,47,30.02,10.0,SSW,4.6,-,N/A,,Clear,200,2013-09-28 07:53:00
1:53 AM,39.9,23.0,51,30.04,10.0,SSW,3.5,-,N/A,,Clear,210,2013-09-28 08:53:00
2:53 AM,39.0,23.0,53,30.04,10.0,SSW,3.5,-,N/A,,Clear,200,2013-09-28 09:53:00
3:53 AM,37.9,23.0,55,30.05,10.0,SSW,8.1,-,N/A,,Clear,200,2013-09-28 10:53:00
4:53 AM,37.0,23.0,57,30.06,10.0,SSW,6.9,-,N/A,,Clear,200,2013-09-28 11:53:00
5:53 AM,36.0,23.0,59,30.09,10.0,SSW,4.6,-,N/A,,Clear,200,2013-09-28 12:53:00
6:53 AM,37.9,23.0,55,30.12,10.0,SSW,6.9,-,N/A,,Clear,200,2013-09-28 13:53:00
7:53 AM,48.0,24.1,39,30.13,10.0,Calm,Calm,-,N/A,,Clear,0,2013-09-28 14:53:00
8:53 AM,54.0,24.1,31,30.12,10.0,Calm,Calm,-,N/A,,Clear,0,2013-09-28 15:53:00
9:53 AM,60.1,21.0,22,30.12,10.0,Calm,Calm,-,N/A,,Clear,0,2013-09-28 16:53:00
10:53 AM,64.0,23.0,21,30.11,10.0,East,3.5,-,N/A,,Clear,100,2013-09-28 17:53:00
11:53 AM,68.0,19.9,16,30.09,10.0,NNW,4.6,-,N/A,,Clear,330,2013-09-28 18:53:00
12:53 PM,70.0,17.1,13,30.08,10.0,Variable,5.8,-,N/A,,Clear,0,2013-09-28 19:53:00
1:53 PM,71.1,19.0,14,30.05,10.0,Variable,3.5,-,N/A,,Clear,0,2013-09-28 20:53:00
2:53 PM,73.0,19.9,14,30.04,10.0,North,4.6,-,N/A,,Clear,350,2013-09-28 21:53:00
3:53 PM,73.0,12.9,10,30.03,10.0,North,6.9,-,N/A,,Clear,10,2013-09-28 22:53:00
4:53 PM,72.0,12.9,10,30.04,10.0,North,4.6,-,N/A,,Clear,10,2013-09-28 23:53:00
5:53 PM,69.1,14.0,12,30.05,10.0,NNE,5.8,-,N/A,,Clear,20,2013-09-29 00:53:00
6:53 PM,62.1,19.9,20,30.08,10.0,Calm,Calm,-,N/A,,Clear,0,2013-09-29 01:53:00
7:53 PM,55.9,21.0,26,30.08,10.0,SSW,6.9,-,N/A,,Clear,200,2013-09-29 02:53:00
8:53 PM,53.1,24.1,32,30.08,10.0,SSW,9.2,-,N/A,,Clear,200,2013-09-29 03:53:00
9:53 PM,52.0,21.9,31,30.07,10.0,SSW,8.1,-,N/A,,Clear,200,2013-09-29 04:53:00
10:53 PM,52.0,23.0,32,30.07,10.0,South,9.2,-,N/A,,Clear,190,2013-09-29 05:53:00
11:53 PM,46.9,30.0,52,30.07,10.0,Calm,Calm,-,N/A,,Clear,0,2013-09-29 06:53:00